www.pogodaiklimat.ru

Погода и климат >> Архив погоды >> Испания >> Сантандер аэропорт


ПОГОДА в Сантандер аэропорту

  • Прогноз погоды в Сантандер аэропорту
  • Монитор погоды в Сантандер аэропорту

АРХИВ ПОГОДЫ в Сантандер аэропорту

Время (UTC), дата Ветер
(напр.,м/с)
 
Видим.   Явления Облачность Т
(С)
Тd
(С)
f
(%)
Тe
(С)
Тes
(С)
Комфортность P
(гПа)
Po
(гПа)
Тmin
(С)
Tmax
(С)
R
(мм)
R24
(мм)
S
(см)
07 17.06 В 1 н/о н/о +15.9 +14.9 94 +17 +17 1016.8 1016.6
08 17.06 штиль 0 н/о н/о +16.8 +15.0 89 +17 +17 1016.7 1016.5
09 17.06 СВ 2 6000 м дымка 9/9 300 м
[St]
+18.7 +15.5 82 +20 +21 1016.5 1016.3
10 17.06 СВ 3 н/о н/о +19.4 +16.0 81 +21 +21 комфорт 1015.9 1015.8
11 17.06 СВ 2 н/о н/о +20.6 +16.1 75 +24 +24 комфорт 1015.4 1015.3
12 17.06 С 3 8000 м 8/1 300 м
[St Ci]
+20.2 +16.2 78 +23 +35 комфорт 1014.8 1014.7
13 17.06 С 3 н/о н/о +20.6 +16.3 76 +24 +24 комфорт 1014.3 1014.2
14 17.06 С 3 н/о н/о +19.9 +16.1 79 +23 +23 комфорт 1014.4 1014.3
15 17.06 З 4 15 км 10/10 300 м
[St]
+18.8 +15.5 81 +20 +20 1014.5 1014.4
16 17.06 З 5 н/о н/о +17.9 +14.6 81 +17 +17 1014.9 1014.7
17 17.06 З 4 н/о н/о +17.8 +14.9 83 +18 +18 1014.7 1014.5
18 17.06 З 5 18 км 10/10 300 м
[St]
+17.9 +15.0 83 +18 +18 1015.1 1014.9 +21.1
19 17.06 ЮЗ 3 н/о н/о +17.5 +14.6 83 +17 +17 1015.0 1014.8
20 17.06 ЮЗ 3 н/о н/о +17.2 +14.5 84 +17 +17 1014.8 1014.6
21 17.06 ЮЗ 2 12 км 10/4 300 м
[St As op]
+17.0 +14.6 86 +17 +17 1014.6 1014.4
22 17.06 З 3 н/о н/о +16.6 +14.8 89 +16 +16 1014.5 1014.3
23 17.06 З 2 н/о н/о +16.5 +14.9 90 +17 +17 1014.5 1014.3
00 18.06 СЗ 2 н/о н/о +16.3 +14.7 90 +17 +17 1013.4 1013.2
01 18.06 штиль 0 н/о н/о +15.6 +14.3 92 +15 +15 1012.9 1012.7
02 18.06 ЮВ 1 н/о н/о +13.6 +12.7 94 +14 +14 1012.0 1011.8
03 18.06 В 2 н/о н/о +14.7 +14.2 97 +14 +14 1010.9 1010.7
04 18.06 С 1 н/о н/о +13.5 +12.9 96 +14 +14 1010.6 1010.4
05 18.06 Ю 1 н/о н/о +13.6 +13.3 98 +14 +14 1010.6 1010.4
06 18.06 ЮЗ 1 6000 м дымка 3/0
[Ac trans Ci fib]
+15.4 +14.9 97 +16 +17 1010.9 1010.7 +13.0
07 18.06 ЮЗ 1 н/о н/о +18.6 +16.2 86 +21 +21 комфорт 1010.4 1010.3
08 18.06 СВ 2 н/о н/о +20.5 +16.3 77 +24 +24 комфорт 1010.0 1009.9
09 18.06 СВ 3 12 км 1/0
[Ac trans Ci fib]
+20.8 +16.6 77 +25 +33 комфорт 1009.3 1009.2
10 18.06 СВ 3 н/о н/о +22.5 +18.4 78 +28 +28 душно 1008.5 1008.4
11 18.06 СЗ 5 н/о н/о +27.1 +19.6 64 +33 +33 очень
душно
1008.0 1007.8
12 18.06 СЗ 6 15 км ясно +22.5 +18.6 79 +28 +35 душно 1008.3 1008.2
13 18.06 СЗ 8 н/о н/о +20.1 +17.1 83 +22 +22 комфорт 1010.0 1009.9
14 18.06 СЗ 5 н/о н/о +19.3 +16.1 82 +21 +21 комфорт 1010.4 1010.3
15 18.06 З 5 15 км 9/9
[St]
+20.2 +16.2 78 +23 +24 комфорт 1010.3 1010.2
16 18.06 З 4 н/о н/о +20.3 +16.1 77 +23 +23 комфорт 1010.3 1010.2
17 18.06 З 4 н/о н/о +20.1 +16.0 77 +23 +23 комфорт 1010.4 1010.3
18 18.06 СЗ 2 20 км 4/1 600 м
[Cu Sc Ac trans]
+20.7 +16.1 75 +25 +26 комфорт 1010.3 1010.2 +28.0
19 18.06 СЗ 2 н/о н/о +20.1 +15.9 77 +23 +23 комфорт 1010.8 1010.7
20 18.06 З 2 н/о н/о +17.0 +15.0 88 +18 +18 1011.9 1011.7
21 18.06 ЮЗ 1 20 км 4/1 1000 м
[Cu Sc Ac trans]
+16.1 +14.8 92 +17 +17 1012.6 1012.4
22 18.06 штиль 0 н/о в посл. час осадки н/о +15.9 +14.8 93 +16 +16 1012.6 1012.4
23 18.06 СВ 1 н/о н/о +16.3 +15.3 94 +17 +17 1012.1 1011.9
00 19.06 ЮВ 1 н/о н/о +15.6 +14.6 94 +17 +17 1011.5 1011.3 0.0
01 19.06 ЮЗ 1 н/о н/о +14.9 +14.1 95 +15 +15 1011.5 1011.3
02 19.06 Ю 1 н/о н/о +14.4 +13.8 96 +15 +15 1011.7 1011.5
03 19.06 Ю 1 н/о н/о +13.6 +12.9 96 +14 +14 1012.0 1011.8
04 19.06 З 2 н/о н/о +13.5 +13.0 97 +13 +13 1012.5 1012.3
05 19.06 ЮЗ 1 н/о в посл. час осадки н/о +13.6 +13.1 97 +14 +14 1012.7 1012.5
06 19.06 ЮЗ 2 5000 м 5/4 600 м
[Sc diur, vesp Ac cuf Ci fib]
+15.3 +14.8 97 +15 +16 1012.6 1012.4 +13.4 0.0
07 19.06 З 3 н/о н/о +17.3 +16.0 92 +17 +17 1013.0 1012.8
08 19.06 СЗ 4 н/о н/о +18.9 +16.5 86 +20 +20 1013.7 1013.6
09 19.06 СЗ 2 8000 м 6/4 300 м
[Sc diur, vesp Ac cuf]
+19.4 +16.4 83 +22 +27 комфорт 1014.0 1013.9
10 19.06 СЗ 2 н/о н/о +20.1 +16.6 80 +24 +24 комфорт 1014.5 1014.4
11 19.06 СВ 4 н/о н/о +20.5 +17.1 81 +24 +24 комфорт 1014.7 1014.6
12 19.06 СВ 4 20 км 5/4 600 м
[Cu Sc As trans Ci fib]
+20.9 +16.2 74 +24 +32 комфорт 1014.8 1014.7
13 19.06 СВ 5 н/о н/о +21.8 +16.4 71 +26 +26 душно 1015.0 1014.9
14 19.06 С 3 н/о н/о +21.2 +15.2 69 +24 +24 комфорт 1015.4 1015.3
15 19.06 С 4 20 км 10/10 600 м
[Cu Sc]
+20.2 +14.8 71 +23 +23 комфорт 1015.7 1015.6
16 19.06 СЗ 3 н/о н/о +19.7 +15.1 75 +22 +22 комфорт 1015.9 1015.8
17 19.06 СЗ 3 н/о н/о +19.4 +15.8 80 +21 +21 комфорт 1016.0 1015.9
18 19.06 З 3 20 км 10/10 600 м
[Cu Sc]
+19.1 +15.8 81 +21 +21 комфорт 1016.5 1016.3 +22.8
19 19.06 З 3 н/о н/о +18.8 +15.5 81 +20 +20 1017.1 1016.9
20 19.06 З 5 н/о н/о +17.4 +15.9 91 +17 +17 1017.4 1017.2
21 19.06 З 2 10 км 10/5 1000 м
[Frnb Ac lent]
+16.6 +15.6 94 +17 +17 1018.0 1017.8 0.0
22 19.06 ЮЗ 2 н/о н/о +16.7 +15.7 94 +17 +17 1018.1 1017.9
23 19.06 ЮЗ 2 н/о н/о +16.8 +15.6 93 +17 +17 1018.2 1018.0
00 20.06 З 2 н/о н/о +16.8 +15.7 93 +17 +17 1018.1 1017.9
01 20.06 З 3 н/о осадки н/о +16.6 +15.8 95 +16 +16 1018.1 1017.9
02 20.06 З 1 н/о осадки н/о +16.3 +15.8 97 +17 +17 1017.8 1017.6
03 20.06 З 2 н/о осадки н/о +16.0 +15.5 97 +16 +16 1017.7 1017.5 0.5
04 20.06 З 1 н/о осадки н/о +15.9 +15.6 98 +17 +17 1017.9 1017.7
05 20.06 штиль 0 н/о осадки н/о +16.0 +15.7 98 +16 +16 1018.0 1017.8
06 20.06 ЮЗ 2 5000 м слаб. морось 10/10 200 м
[St]
+15.8 +15.5 98 +16 +16 1018.1 1017.9 +15.8 3
07 20.06 Ю 1 н/о осадки н/о +16.2 +15.9 98 +17 +17 1018.2 1018.0
08 20.06 ЮВ 2 н/о осадки н/о +16.1 +15.6 97 +16 +16 1018.3 1018.1
09 20.06 ЮВ 2 8000 м в посл. час дождь {морось} 10/10 200 м
[Cu Sc]
+16.5 +15.9 96 +17 +17 1018.3 1018.1 0.8
10 20.06 СЗ 2 н/о в посл. час осадки н/о +16.9 +15.9 94 +17 +17 1018.5 1018.3
11 20.06 СВ 1 н/о осадки н/о +17.5 +16.2 92 +19 +19 1018.6 1018.4
12 20.06 В 3 20 км {дождь, морось} 10/10 300 м
[Cu Sc]
+17.7 +16.0 90 +18 +18 1018.5 1018.3 0.0
13 20.06 В 3 н/о н/о +18.5 +15.8 84 +20 +20 1018.3 1018.1
14 20.06 СВ 3 н/о н/о +18.7 +15.6 82 +20 +20 1018.2 1018.0
15 20.06 СВ 3 30 км 10/10 300 м
[Cu Sc]
+18.8 +15.1 79 +20 +20 1017.9 1017.7
16 20.06 СВ 4 н/о н/о +18.6 +15.7 83 +19 +19 1018.1 1017.9
17 20.06 СВ 4 н/о н/о +18.6 +15.8 84 +19 +19 1017.9 1017.7
18 20.06 СВ 4 30 км 9/6 300 м
[Cu Sc Ac As]
+18.1 +15.7 86 +18 +18 1018.3 1018.1 +19.0
19 20.06 СВ 4 н/о н/о +17.7 +15.1 85 +18 +18 1018.4 1018.2
20 20.06 СВ 4 н/о н/о +17.7 +15.3 86 +18 +18 1018.7 1018.5
21 20.06 СВ 4 25 км слаб. дождь 10/8 300 м
[Cu Sc Ac As]
+16.9 +14.5 86 +17 +17 1019.2 1019.0
22 20.06 В 2 н/о осадки н/о +15.9 +14.9 94 +16 +16 1019.6 1019.4
23 20.06 ЮВ 2 н/о осадки н/о +15.8 +15.3 97 +16 +16 1019.6 1019.4
00 21.06 В 2 н/о осадки н/о +16.1 +15.6 97 +16 +16 1019.4 1019.2 4
01 21.06 В 4 н/о осадки н/о +16.2 +15.2 94 +15 +15 1019.3 1019.1
02 21.06 СВ 4 н/о осадки н/о +15.9 +15.1 95 +15 +15 1019.3 1019.1
03 21.06 СВ 6 н/о в посл. час осадки н/о +15.6 +14.6 94 +14 +14 1019.1 1018.9 3
04 21.06 СВ 5 н/о осадки н/о +15.3 +14.0 92 +14 +14 1019.1 1018.9
05 21.06 СВ 4 н/о в посл. час осадки н/о +15.4 +13.8 90 +14 +14 1019.8 1019.6
06 21.06 С 4 25 км {дождь, морось} 10/10 300 м
[Frnb]
+15.5 +13.9 90 +15 +15 1020.3 1020.1 +15.2 0.0
07 21.06 С 4 н/о н/о +15.4 +13.0 86 +15 +15 1020.9 1020.7
08 21.06 СВ 3 н/о н/о +16.0 +13.1 83 +16 +16 1021.3 1021.1
09 21.06 С 1 30 км 10/10 600 м
[Cu Sc]
+17.1 +12.8 76 +18 +18 1021.5 1021.3
10 21.06 Ю 2 н/о н/о +17.6 +13.1 75 +18 +18 1021.7 1021.5
11 21.06 СВ 1 н/о н/о +18.2 +13.1 72 +20 +20 1021.6 1021.4
12 21.06 СВ 3 30 км 8/5 600 м
[Cu hum Ac trans Ci fib]
+19.5 +13.7 69 +21 +27 комфорт 1021.5 1021.3
13 21.06 СВ 4 н/о н/о +19.8 +14.0 69 +22 +22 комфорт 1021.4 1021.2
14 21.06 СВ 4 н/о н/о +20.1 +13.3 65 +22 +22 комфорт 1021.3 1021.1
15 21.06 СВ 5 35 км 5/1 1000 м
[Cu hum Ac As Ci sp]
+19.6 +12.4 63 +21 +26 комфорт 1021.1 1020.9
16 21.06 СВ 5 н/о н/о +19.3 +13.0 67 +20 +20 1020.8 1020.6
17 21.06 СВ 5 н/о н/о +19.2 +13.4 69 +20 +20 1020.6 1020.4
18 21.06 СВ 5 35 км 4/1 600 м
[Cu hum Cs]
+18.8 +14.0 74 +20 +21 1020.8 1020.6 +20.2
19 21.06 СВ 5 н/о н/о +18.0 +13.3 74 +18 +18 1021.0 1020.8
20 21.06 СВ 4 н/о н/о +17.1 +13.4 79 +17 +17 1021.4 1021.2
21 21.06 В 3 25 км 3/1 600 м
[Cu hum Cs]
+16.0 +13.1 83 +16 +16 1021.6 1021.4
22 21.06 В 2 н/о н/о +15.1 +13.0 87 +15 +15 1021.2 1021.0
23 21.06 В 4 н/о н/о +15.2 +13.4 89 +14 +14 1020.4 1020.2
00 22.06 В 2 н/о н/о +14.4 +12.9 91 +14 +14 1020.1 1019.9
01 22.06 В 1 н/о н/о +13.4 +12.3 93 +13 +13 1019.1 1018.9
02 22.06 Ю 1 н/о н/о +12.3 +11.2 93 +12 +12 1018.5 1018.3
03 22.06 В 2 н/о н/о +11.7 +10.9 95 +11 +11 1017.6 1017.4
04 22.06 В 1 н/о н/о +11.9 +11.4 97 +12 +12 1016.7 1016.5
05 22.06 Ю 1 н/о н/о +11.0 +10.5 97 +11 +11 1016.8 1016.6
06 22.06 ЮВ 2 20 км 9/0
[Ac trans Ci fib]
+14.1 +13.3 95 +14 +15 1016.4 1016.2 +10.7
07 22.06 В 3 н/о н/о +15.7 +12.6 82 +15 +15 1016.1 1015.9
08 22.06 В 3 н/о н/о +18.6 +13.5 72 +20 +20 1015.6 1015.4
09 22.06 СВ 5 30 км 8/0
[Ac trans Cs]
+20.8 +14.6 68 +24 +29 комфорт 1015.0 1014.9
10 22.06 СВ 5 н/о н/о +22.1 +16.2 69 +26 +26 душно 1014.3 1014.2
11 22.06 СВ 5 н/о н/о +23.5 +16.5 65 +27 +27 душно 1014.0 1013.9
12 22.06 СВ 5 30 км 8/0
[Ac trans Cs]
+22.8 +16.7 68 +27 +35 душно 1013.5 1013.4
13 22.06 СВ 6 н/о н/о +23.6 +17.3 68 +27 +27 жарко 1012.8 1012.7
14 22.06 СВ 6 н/о н/о +23.9 +17.2 66 +28 +28 душно 1012.2 1012.1
15 22.06 СВ 6 40 км 8/0
[Ac lent Ci sp]
+25.6 +17.7 62 +30 +33 душно 1011.8 1011.6
16 22.06 СВ 5 н/о н/о +24.7 +17.6 65 +29 +29 душно 1011.1 1010.9
17 22.06 СВ 5 н/о н/о +24.6 +17.4 64 +29 +29 душно 1011.0 1010.8
18 22.06 СВ 4 40 км 8/0
[Ac lent Ci sp]
+23.2 +17.3 69 +28 +29 душно 1010.8 1010.7 +25.8
19 22.06 СВ 4 н/о н/о +22.2 +17.1 73 +27 +27 душно 1010.8 1010.7
20 22.06 СВ 4 н/о н/о +21.0 +17.2 79 +25 +25 комфорт 1010.5 1010.4
21 22.06 В 3 25 км 9/0
[Ac trans Ci sp]
+20.9 +17.2 79 +25 +25 комфорт 1010.5 1010.4
22 22.06 штиль 0 н/о н/о +20.0 +16.8 82 +22 +22 комфорт 1010.1 1010.0
23 22.06 Ю 1 н/о н/о +19.2 +16.8 86 +22 +22 комфорт 1009.7 1009.6
00 23.06 З 3 н/о н/о +19.1 +17.1 88 +21 +21 комфорт 1009.4 1009.3
01 23.06 З 2 н/о н/о +18.6 +16.7 89 +20 +20 1009.0 1008.9
02 23.06 штиль 0 н/о н/о +18.2 +16.5 90 +19 +19 1008.4 1008.3
03 23.06 ЮЗ 1 н/о н/о +17.7 +16.4 92 +19 +19 1008.2 1008.1
04 23.06 З 6 н/о н/о +18.6 +15.3 81 +19 +19 1009.8 1009.7
05 23.06 З 5 н/о н/о +18.5 +15.0 80 +19 +19 1011.0 1010.9
06 23.06 ЮЗ 4 20 км 8/0
[Ac inh Cs]
+18.2 +14.9 81 +18 +19 1011.8 1011.7 +17.6
07 23.06 ЮЗ 3 н/о н/о +19.3 +14.5 74 +21 +21 комфорт 1011.9 1011.8
08 23.06 ЮЗ 2 н/о н/о +20.9 +14.4 66 +24 +24 комфорт 1011.6 1011.5
09 23.06 З 1 30 км 9/0
[Ac lent Cs]
+21.6 +14.0 62 +24 +29 комфорт 1011.6 1011.5
10 23.06 СЗ 2 н/о н/о +23.2 +15.0 60 +27 +27 душно 1011.9 1011.8
11 23.06 С 3 н/о осадки н/о +23.7 +15.8 61 +27 +27 жарко 1012.2 1012.1
12 23.06 С 3 35 км 9/0
[Ac trans Cs]
+23.8 +15.9 61 +27 +37 жарко 1012.8 1012.7 0.0
13 23.06 С 4 н/о н/о +24.0 +15.8 60 +27 +27 жарко 1012.8 1012.7
14 23.06 С 3 н/о н/о +21.8 +14.9 65 +25 +25 комфорт 1013.0 1012.9
15 23.06 В 4 35 км 10/3 2000 м
[Sc Ac trans Cs]
+21.2 +15.8 71 +24 +28 комфорт 1012.6 1012.5
16 23.06 В 4 н/о н/о +20.3 +15.7 75 +23 +23 комфорт 1012.8 1012.7
17 23.06 В 3 н/о н/о +20.0 +15.8 77 +23 +23 комфорт 1013.3 1013.2
18 23.06 В 3 30 км 10/1 2000 м
[Sc Ac As Cs]
+19.5 +16.2 81 +22 +23 комфорт 1013.6 1013.5 +24.8
19 23.06 СВ 4 н/о н/о +19.3 +16.0 81 +21 +21 комфорт 1013.8 1013.7
20 23.06 В 3 н/о н/о +18.9 +15.8 82 +20 +20 1013.4 1013.3
21 23.06 СВ 3 30 км 10/4 2000 м
[Sc Ac As Cs]
+19.1 +15.8 81 +21 +21 комфорт 1014.1 1014.0
22 23.06 СВ 3 н/о н/о +18.6 +15.8 84 +20 +20 1014.3 1014.2
23 23.06 С 2 н/о н/о +17.9 +16.1 89 +19 +19 1014.6 1014.4
00 24.06 З 2 н/о н/о +17.5 +16.5 94 +18 +18 1014.7 1014.5
01 24.06 ЮЗ 2 н/о н/о +17.6 +16.8 95 +18 +18 1014.5 1014.3
02 24.06 Ю 2 н/о н/о +16.8 +16.0 95 +17 +17 1014.1 1013.9
03 24.06 С 1 н/о н/о +17.1 +16.5 96 +18 +18 1013.7 1013.5
04 24.06 ЮВ 2 н/о н/о +16.8 +16.0 95 +17 +17 1013.0 1012.8
05 24.06 В 2 н/о н/о +17.4 +16.6 95 +18 +18 1013.4 1013.2
06 24.06 СВ 2 15 км 10/0
[Ac As Cs]
+17.8 +16.8 94 +18 +19 1013.4 1013.2 +16.7
07 24.06 С 2 н/о н/о +18.0 +16.8 93 +19 +19 1013.6 1013.4
08 24.06 ЮЗ 2 н/о н/о +18.3 +17.1 93 +19 +19 1014.7 1014.5

 

Местоположение метеостанции Сантандер аэропорт (Испания): широта 43.43 долгота -3.82 высота над уровнем моря 6 м.

В архиве по умолчанию представлена погода в Сантандер аэропорту за последнюю неделю. Архивные данные за месяц целиком и за предыдущие месяцы, начиная с января 2011 года, Вы можете получить, выбрав интересующий диапазон дат из раскрывающегося списка и нажав кнопку "Ввод!".


*Определитесь, кто Вы:
робот инопланетянин человек

Внимание! Время в таблицах - всемирное. Для получения местного времени необходимо прибавить поправку, которая равна 1 ч.

Смотрите также архив погоды в соседних городах и на ближайших метеорологических станциях:

Погода в Сантандере (Испания) (6 км)
Погода на Мысе Сан-Висенте (Испания) (46 км)
Погода в Кастро-Урдьялесе (Испания) (48 км)
Погода в Нестаресе (Испания) (56 км)
Погода в Медина-де-Помаре (Испания) (63 км)
Погода в Гуэньесе (Испания) (64 км)
Погода в Пунта Галеа (Испания) (65 км)
Погода в Полиентес-Касисе (Испания) (70 км)
Погода в Бильбао (Испания) (73 км)
Погода в Льянесе (Испания) (75 км)

Пояснения к столбцам:

Ветер - указаны скорость ветра в м/с - средняя за 10 мин, порывы в срок и между сроками (в фигурных скобках) и направление, откуда дует ветер: С - северный, СВ - северо-восточный, В - восточный, ЮВ - юго-восточный, Ю - южный, ЮЗ - юго-западный, З - западный, СЗ - северо-западный.
Видимость - горизонтальная дальность видимости в метрах или километрах. При видимости от 1 до 10 км при отсутствии осадков обычно наблюдается дымка, при ухудшении видимости до 1 км и менее - туман. В сухую погоду видимость может ухудшаться дымом, пылью или мглою.
Явления - указаны атмосферные явления, наблюдавшиеся в срок или в последний час перед сроком; фигурными скобками обозначены явления, наблюдавшиеся между сроками (за 1-3 часа до срока); квадратными скобками обозначены град или гололедные отложения с указанием их диаметра в мм.
Облачность - указаны через наклонную черту общая и нижняя облачность в баллах и высота нижней границы облаков в метрах; квадратными скобками обозначены формы облаков: Ci - перистые, Cs - перисто-слоистые, Cc - перисто-кучевые, Ac - высококучевые, As - высокослоистые, Sc - слоисто-кучевые, Ns - слоисто-дождевые, Cu - кучевые, Cb - кучево-дождевые. Подробнее классификацию облаков см. в Атласе облаков (PDF).
T - Температура воздуха - температура, измеренная на высоте 2 м над землей.
Td - Температура точки росы - температура, при понижении до которой содержащийся в воздухе водяной пар достигнет насыщения.
f - Относительная влажность воздуха - влажноcть воздуха, измеренная на высоте 2 м над землей.
Te - Эффективная температура - температура, которую ощущает одетый по сезону человек в тени. Характеристика душности погоды. При расчете учитывается влияние влажности воздуха и скорости ветра на теплоощущения человека.
Tes - Эффективная температура на солнце - температура, которую ощущает человек, с поправкой на солнечный нагрев. Характеристика знойности погоды. Зависит от высоты солнца над горизонтом, облачности и скорости ветра. Ночью, в пасмурную погоду, а также при ветре 12 м/с и более поправка равна нулю.
P - Атмосферное давление - приведенное к уровню моря атмосферное давление.
Po - Атмосферное давление - измеренное на уровне метеостанции атмосферное давление.
Tmin - Минимальная температура - минимум температуры воздуха на высоте 2 м над землей.
Tmax - Максимальная температура - максимум температуры воздуха на высоте 2 м над землей.
R - Количество осадков - Количество выпавших осадков за период времени, мм. При наведении курсора мыши на число - период времени, за который выпало указанное количество осадков.
R24 - Количество осадков - Количество выпавших осадков за 24 часа, мм.
S - Снежный покров - Высота снежного покрова, см. При наведении курсора мыши на число - состояние снежного покрова и степень покрытия местности в баллах.